• en Suisse
  • Liste des pays
  • À 7 jours
  • Température de l'eau
  • Carte satellitaire
  • Carte météo
  • Widgets météo
  • user-avatar
    Se connecter

    Météo par heure à Sharabino

    Ce jour, 15 Août, Mercredi

    Heure Température Précipitation Vent Pression Humidité
    00:00 +15°C° 0,5 mm 2 m/s 753 mmHg 84%
    01:00 +15°C° 0,5 mm 2 m/s 752 mmHg 89%
    02:00 +15°C° 0 mm 2 m/s 751 mmHg 95%
    03:00 +15°C° 1 mm 2 m/s 751 mmHg 96%
    04:00 +15°C° 1 mm 2 m/s 751 mmHg 97%
    05:00 +15°C° 1 mm 2 m/s 750 mmHg 98%
    06:00 +16°C° 0,6 mm 2 m/s 750 mmHg 97%
    07:00 +17°C° 0,6 mm 2 m/s 750 mmHg 96%
    08:00 +19°C° 0,6 mm 1 m/s 750 mmHg 96%
    09:00 +19°C° 0,6 mm 1 m/s 750 mmHg 96%
    10:00 +19°C° 0,6 mm 1 m/s 750 mmHg 95%
    11:00 +19°C° 0,6 mm 1 m/s 750 mmHg 95%
    12:00 +19°C° 0,2 mm 2 m/s 750 mmHg 95%
    13:00 +19°C° 0,2 mm 2 m/s 751 mmHg 94%
    14:00 +19°C° 0,2 mm 2 m/s 751 mmHg 93%
    15:00 +19°C° 0,1 mm 2 m/s 751 mmHg 93%
    16:00 +19°C° 0,1 mm 2 m/s 751 mmHg 92%
    17:00 +19°C° 0,1 mm 2 m/s 752 mmHg 91%
    18:00 +18°C° 0 mm 2 m/s 752 mmHg 93%
    19:00 +19°C° 0 mm 1 m/s 752 mmHg 95%
    20:00 +18°C° 0 mm 1 m/s 753 mmHg 97%
    21:00 +16°C° 0 mm 1 m/s 753 mmHg 98%
    22:00 +16°C° 0 mm 1 m/s 753 mmHg 98%
    23:00 +15°C° 0 mm 1 m/s 754 mmHg 98%

    Demain, 16 Août, Jeudi

    Heure Température Précipitation Vent Pression Humidité
    00:00 +15°C° 0 mm 1 m/s 754 mmHg 98%
    01:00 +15°C° 0 mm 1 m/s 754 mmHg 98%
    02:00 +15°C° 0 mm 1 m/s 755 mmHg 98%
    03:00 +14°C° 0 mm 1 m/s 755 mmHg 98%
    04:00 +14°C° 0 mm 1 m/s 756 mmHg 98%
    05:00 +14°C° 0 mm 1 m/s 756 mmHg 98%
    06:00 +15°C° 0 mm 1 m/s 756 mmHg 96%
    07:00 +16°C° 0 mm 1 m/s 757 mmHg 94%
    08:00 +16°C° 0 mm 1 m/s 757 mmHg 92%
    09:00 +19°C° 0 mm 1 m/s 758 mmHg 84%
    10:00 +20°C° 0 mm 1 m/s 758 mmHg 77%
    11:00 +22°C° 0 mm 1 m/s 758 mmHg 70%
    12:00 +22°C° 0 mm 1 m/s 758 mmHg 69%
    13:00 +22°C° 0 mm 1 m/s 758 mmHg 67%
    14:00 +22°C° 0 mm 1 m/s 758 mmHg 66%
    15:00 +22°C° 0 mm 1 m/s 758 mmHg 66%
    16:00 +23°C° 0 mm 1 m/s 759 mmHg 65%
    17:00 +23°C° 0 mm 1 m/s 759 mmHg 65%
    18:00 +21°C° 0 mm 1 m/s 759 mmHg 71%
    19:00 +17°C° 0 mm 0 m/s 759 mmHg 78%
    20:00 +15°C° 0 mm 0 m/s 759 mmHg 84%
    21:00 +15°C° 0 mm 0 m/s 760 mmHg 86%
    22:00 +14°C° 0 mm 0 m/s 760 mmHg 88%
    23:00 +14°C° 0 mm 0 m/s 760 mmHg 90%

    Après-demain, 17 Août, Vendredi

    Heure Température Précipitation Vent Pression Humidité
    00:00 +13°C° 0 mm 0 m/s 760 mmHg 91%
    01:00 +13°C° 0 mm 0 m/s 760 mmHg 91%
    02:00 +13°C° 0 mm 0 m/s 761 mmHg 92%
    03:00 +13°C° 0 mm 0 m/s 761 mmHg 92%
    04:00 +13°C° 0 mm 1 m/s 761 mmHg 93%
    05:00 +13°C° 0 mm 1 m/s 761 mmHg 93%
    06:00 +15°C° 0 mm 1 m/s 761 mmHg 86%
    07:00 +18°C° 0 mm 1 m/s 761 mmHg 79%
    08:00 +20°C° 0 mm 1 m/s 761 mmHg 72%
    09:00 +22°C° 0 mm 1 m/s 761 mmHg 67%
    10:00 +23°C° 0 mm 2 m/s 761 mmHg 61%
    11:00 +25°C° 0 mm 2 m/s 761 mmHg 55%
    12:00 +25°C° 0 mm 2 m/s 761 mmHg 54%
    13:00 +25°C° 0 mm 2 m/s 761 mmHg 54%
    14:00 +26°C° 0 mm 2 m/s 760 mmHg 54%
    15:00 +25°C° 0 mm 2 m/s 760 mmHg 56%
    16:00 +25°C° 0 mm 1 m/s 760 mmHg 58%
    17:00 +25°C° 0 mm 1 m/s 760 mmHg 61%
    18:00 +23°C° 0 mm 1 m/s 760 mmHg 68%
    19:00 +21°C° 0 mm 1 m/s 760 mmHg 75%
    20:00 +19°C° 0 mm 1 m/s 760 mmHg 82%
    21:00 +19°C° 0 mm 1 m/s 760 mmHg 85%
    22:00 +18°C° 0 mm 1 m/s 760 mmHg 87%
    23:00 +18°C° 0 mm 1 m/s 760 mmHg 89%

    18 Août, Samedi

    Heure Température Précipitation Vent Pression Humidité
    00:00 +16°C° 0 mm 1 m/s 760 mmHg 91%
    01:00 +16°C° 0 mm 2 m/s 760 mmHg 93%
    02:00 +16°C° 0 mm 2 m/s 760 mmHg 95%
    03:00 +16°C° 0 mm 2 m/s 760 mmHg 95%
    04:00 +16°C° 0 mm 2 m/s 760 mmHg 96%
    05:00 +15°C° 0 mm 2 m/s 760 mmHg 96%
    06:00 +17°C° 0 mm 2 m/s 760 mmHg 91%
    07:00 +19°C° 0 mm 2 m/s 760 mmHg 85%
    08:00 +20°C° 0 mm 2 m/s 760 mmHg 79%
    09:00 +22°C° 0,1 mm 3 m/s 760 mmHg 74%
    10:00 +24°C° 0,1 mm 3 m/s 760 mmHg 69%
    11:00 +26°C° 0,1 mm 3 m/s 760 mmHg 63%
    12:00 +26°C° 0,1 mm 3 m/s 759 mmHg 61%
    13:00 +27°C° 0,1 mm 3 m/s 759 mmHg 59%
    14:00 +28°C° 0,1 mm 3 m/s 759 mmHg 57%
    15:00 +27°C° 0,2 mm 3 m/s 758 mmHg 61%
    16:00 +27°C° 0,2 mm 2 m/s 758 mmHg 65%
    17:00 +26°C° 0,2 mm 2 m/s 758 mmHg 69%
    18:00 +25°C° 0,1 mm 2 m/s 758 mmHg 75%
    19:00 +23°C° 0,1 mm 2 m/s 758 mmHg 82%
    20:00 +20°C° 0,1 mm 2 m/s 758 mmHg 89%
    21:00 +19°C° 0 mm 2 m/s 758 mmHg 91%
    22:00 +19°C° 0 mm 2 m/s 758 mmHg 93%
    23:00 +18°C° 0 mm 2 m/s 758 mmHg 95%

    19 Août, Dimanche

    Heure Température Précipitation Vent Pression Humidité
    00:00 +18°C° 0 mm 2 m/s 758 mmHg 95%
    01:00 +18°C° 0 mm 2 m/s 758 mmHg 96%
    02:00 +17°C° 0 mm 2 m/s 757 mmHg 97%
    03:00 +17°C° 0 mm 2 m/s 757 mmHg 97%
    04:00 +17°C° 0 mm 2 m/s 757 mmHg 97%
    05:00 +17°C° 0 mm 2 m/s 757 mmHg 98%
    06:00 +18°C° 0 mm 2 m/s 757 mmHg 94%
    07:00 +19°C° 0 mm 3 m/s 757 mmHg 90%
    08:00 +20°C° 0 mm 3 m/s 757 mmHg 86%
    09:00 +21°C° 0,1 mm 3 m/s 757 mmHg 78%
    10:00 +22°C° 0,1 mm 4 m/s 757 mmHg 70%
    11:00 +23°C° 0,1 mm 4 m/s 756 mmHg 62%
    12:00 +23°C° 0,1 mm 4 m/s 756 mmHg 62%
    13:00 +22°C° 0,1 mm 4 m/s 756 mmHg 62%
    14:00 +22°C° 0,1 mm 4 m/s 756 mmHg 62%
    15:00 +21°C° 0,2 mm 3 m/s 756 mmHg 71%
    16:00 +20°C° 0,2 mm 3 m/s 756 mmHg 81%
    17:00 +18°C° 0,2 mm 3 m/s 756 mmHg 91%
    18:00 +18°C° 0,1 mm 2 m/s 756 mmHg 92%
    19:00 +17°C° 0,1 mm 2 m/s 757 mmHg 94%
    20:00 +17°C° 0,1 mm 2 m/s 757 mmHg 96%
    21:00 +16°C° 0 mm 2 m/s 757 mmHg 96%
    22:00 +15°C° 0 mm 2 m/s 757 mmHg 96%
    23:00 +15°C° 0 mm 2 m/s 757 mmHg 96%

    20 Août, Lundi

    Heure Température Précipitation Vent Pression Humidité
    00:00 +14°C° 0 mm 2 m/s 757 mmHg 96%
    01:00 +13°C° 0 mm 2 m/s 757 mmHg 97%
    02:00 +13°C° 0 mm 2 m/s 758 mmHg 97%
    03:00 +12°C° 0 mm 2 m/s 758 mmHg 97%
    04:00 +12°C° 0 mm 2 m/s 758 mmHg 97%
    05:00 +12°C° 0 mm 2 m/s 758 mmHg 98%
    06:00 +13°C° 0 mm 2 m/s 758 mmHg 95%
    07:00 +14°C° 0 mm 2 m/s 758 mmHg 92%
    08:00 +16°C° 0 mm 2 m/s 759 mmHg 89%
    09:00 +17°C° 0 mm 2 m/s 759 mmHg 77%
    10:00 +19°C° 0 mm 2 m/s 759 mmHg 66%
    11:00 +20°C° 0 mm 2 m/s 759 mmHg 54%
    12:00 +21°C° 0 mm 2 m/s 758 mmHg 51%
    13:00 +23°C° 0 mm 2 m/s 758 mmHg 48%
    14:00 +23°C° 0 mm 2 m/s 758 mmHg 45%
    15:00 +23°C° 0 mm 1 m/s 758 mmHg 47%
    16:00 +23°C° 0 mm 1 m/s 758 mmHg 50%
    17:00 +22°C° 0 mm 1 m/s 758 mmHg 53%
    18:00 +21°C° 0 mm 1 m/s 758 mmHg 59%
    19:00 +19°C° 0 mm 1 m/s 758 mmHg 65%
    20:00 +16°C° 0 mm 1 m/s 758 mmHg 71%
    21:00 +15°C° 0 mm 1 m/s 757 mmHg 75%
    22:00 +15°C° 0 mm 2 m/s 757 mmHg 78%
    23:00 +14°C° 0 mm 2 m/s 757 mmHg 81%
    Voir plus